Time,TemperatureF,DewpointF,PressureIn,WindDirection,WindDirectionDegrees,WindSpeedMPH,WindSpeedGustMPH,Humidity,HourlyPrecipIn,Conditions,Clouds,dailyrainin,SoftwareType,DateUTC
2013-02-01 00:01:00,22.1,11.4,27.89,South,185,0.0,0.0,63,0.00,CLR,,0.00,WeatherDisplay:10.37,2013-02-01 05:01:00,
2013-02-01 00:03:00,22.5,11.8,27.89,South,185,0.0,0.0,63,0.00,CLR,,0.00,WeatherDisplay:10.37,2013-02-01 05:03:00,
2013-02-01 00:04:00,22.5,11.8,27.89,South,185,0.0,0.0,63,0.00,CLR,,0.00,WeatherDisplay:10.37,2013-02-01 05:04:00,
2013-02-01 00:09:00,22.5,11.8,27.89,South,185,0.0,0.0,63,0.00,CLR,,0.00,WeatherDisplay:10.37,2013-02-01 05:09:00,
2013-02-01 00:14:00,22.6,11.9,27.89,South,185,0.0,0.0,63,0.00,CLR,,0.00,WeatherDisplay:10.37,2013-02-01 05:14:00,
2013-02-01 00:19:00,22.8,12.1,27.89,South,185,0.0,0.0,63,0.00,CLR,,0.00,WeatherDisplay:10.37,2013-02-01 05:19:00,
2013-02-01 00:24:00,22.8,12.1,27.89,South,185,0.0,0.0,63,0.00,CLR,,0.00,WeatherDisplay:10.37,2013-02-01 05:24:00,
2013-02-01 00:29:00,22.6,11.9,27.89,South,185,0.0,0.0,63,0.00,CLR,,0.00,WeatherDisplay:10.37,2013-02-01 05:29:00,
2013-02-01 00:34:00,22.3,11.2,27.89,South,185,0.0,0.0,62,0.00,CLR,,0.00,WeatherDisplay:10.37,2013-02-01 05:34:00,
2013-02-01 00:39:00,21.9,9.8,27.89,South,185,0.0,0.0,59,0.00,CLR,,0.00,WeatherDisplay:10.37,2013-02-01 05:39:00,
2013-02-01 00:44:00,21.6,9.0,27.89,South,185,0.0,0.0,58,0.00,CLR,,0.00,WeatherDisplay:10.37,2013-02-01 05:44:00,
2013-02-01 00:49:00,21.6,8.7,27.89,South,185,0.0,0.0,57,0.00,CLR,,0.00,WeatherDisplay:10.37,2013-02-01 05:49:00,
2013-02-01 00:54:00,21.4,8.5,27.89,South,185,0.0,0.0,57,0.00,CLR,,0.00,WeatherDisplay:10.37,2013-02-01 05:54:00,
2013-02-01 00:59:00,21.4,8.1,27.89,South,185,0.0,0.0,56,0.00,CLR,,0.00,WeatherDisplay:10.37,2013-02-01 05:59:00,
2013-02-01 01:04:00,21.2,7.5,27.89,South,185,0.0,0.0,55,0.00,CLR,,0.00,WeatherDisplay:10.37,2013-02-01 06:04:00,
2013-02-01 01:09:00,21.0,7.0,27.89,South,185,0.0,0.0,54,0.00,CLR,,0.00,WeatherDisplay:10.37,2013-02-01 06:09:00,
2013-02-01 01:14:00,20.8,6.8,27.89,South,185,0.0,0.0,54,0.00,CLR,,0.00,WeatherDisplay:10.37,2013-02-01 06:14:00,
2013-02-01 01:19:00,20.7,6.6,27.89,South,185,0.0,0.0,54,0.00,CLR,,0.00,WeatherDisplay:10.37,2013-02-01 06:19:00,
2013-02-01 01:24:00,20.7,6.2,27.89,South,185,0.0,0.0,53,0.00,CLR,,0.00,WeatherDisplay:10.37,2013-02-01 06:24:00,
2013-02-01 01:29:00,20.7,6.2,27.89,South,185,0.0,0.0,53,0.00,CLR,,0.00,WeatherDisplay:10.37,2013-02-01 06:29:00,
2013-02-01 01:34:00,20.8,6.4,27.89,South,185,0.0,0.0,53,0.00,CLR,,0.00,WeatherDisplay:10.37,2013-02-01 06:34:00,
2013-02-01 01:39:00,21.2,6.7,27.89,South,185,0.0,0.0,53,0.00,CLR,,0.00,WeatherDisplay:10.37,2013-02-01 06:39:00,
2013-02-01 01:44:00,20.8,6.8,27.89,South,185,0.0,0.0,54,0.00,CLR,,0.00,WeatherDisplay:10.37,2013-02-01 06:44:00,
2013-02-01 01:49:00,20.7,7.0,27.89,South,185,0.0,0.0,55,0.00,CLR,,0.00,WeatherDisplay:10.37,2013-02-01 06:49:00,
2013-02-01 01:54:00,20.5,6.9,27.89,South,185,0.0,0.0,55,0.00,CLR,,0.00,WeatherDisplay:10.37,2013-02-01 06:54:00,
2013-02-01 01:59:00,20.1,5.7,27.89,South,185,0.0,0.0,53,0.00,CLR,,0.00,WeatherDisplay:10.37,2013-02-01 06:59:00,
2013-02-01 02:04:00,19.6,5.2,27.89,South,185,0.0,0.0,53,0.00,CLR,,0.00,WeatherDisplay:10.37,2013-02-01 07:04:00,
2013-02-01 02:09:00,19.4,5.0,27.89,South,185,0.0,0.0,53,0.00,CLR,,0.00,WeatherDisplay:10.37,2013-02-01 07:09:00,
2013-02-01 02:14:00,19.2,4.9,27.89,South,185,0.0,0.0,53,0.00,CLR,,0.00,WeatherDisplay:10.37,2013-02-01 07:14:00,
2013-02-01 02:19:00,19.0,4.7,27.89,South,185,0.0,0.0,53,0.00,CLR,,0.00,WeatherDisplay:10.37,2013-02-01 07:19:00,
2013-02-01 02:24:00,19.0,4.7,27.89,South,185,0.0,0.0,53,0.00,CLR,,0.00,WeatherDisplay:10.37,2013-02-01 07:24:00,
2013-02-01 02:29:00,19.0,4.7,27.89,South,185,0.0,0.0,53,0.00,CLR,,0.00,WeatherDisplay:10.37,2013-02-01 07:29:00,
2013-02-01 02:34:00,19.0,4.7,27.89,South,185,0.0,0.0,53,0.00,CLR,,0.00,WeatherDisplay:10.37,2013-02-01 07:34:00,
2013-02-01 02:39:00,18.7,4.4,27.89,South,185,0.0,0.0,53,0.00,CLR,,0.00,WeatherDisplay:10.37,2013-02-01 07:39:00,
2013-02-01 02:44:00,18.5,4.2,27.89,South,185,0.0,0.0,53,0.00,CLR,,0.00,WeatherDisplay:10.37,2013-02-01 07:44:00,
2013-02-01 02:49:00,18.7,4.4,27.89,South,185,0.0,0.0,53,0.00,CLR,,0.00,WeatherDisplay:10.37,2013-02-01 07:49:00,
2013-02-01 02:54:00,18.5,2.9,27.89,South,185,0.0,0.0,50,0.00,CLR,,0.00,WeatherDisplay:10.37,2013-02-01 07:54:00,
2013-02-01 02:59:00,18.5,2.9,27.89,South,185,0.0,0.0,50,0.00,CLR,,0.00,WeatherDisplay:10.37,2013-02-01 07:59:00,
2013-02-01 03:04:00,18.5,2.9,27.89,South,185,0.0,0.0,50,0.00,CLR,,0.00,WeatherDisplay:10.37,2013-02-01 08:04:00,
2013-02-01 03:09:00,18.5,2.9,27.89,South,185,0.0,0.0,50,0.00,CLR,,0.00,WeatherDisplay:10.37,2013-02-01 08:09:00,
2013-02-01 03:14:00,18.5,2.9,27.89,South,185,0.0,0.0,50,0.00,CLR,,0.00,WeatherDisplay:10.37,2013-02-01 08:14:00,
2013-02-01 03:19:00,18.3,2.8,27.89,South,185,0.0,0.0,50,0.00,CLR,,0.00,WeatherDisplay:10.37,2013-02-01 08:19:00,
2013-02-01 03:24:00,18.5,2.9,27.89,South,185,0.0,0.0,50,0.00,CLR,,0.00,WeatherDisplay:10.37,2013-02-01 08:24:00,
2013-02-01 03:29:00,18.5,4.2,27.89,South,185,0.0,0.0,53,0.00,CLR,,0.00,WeatherDisplay:10.37,2013-02-01 08:29:00,
2013-02-01 03:34:00,18.3,4.0,27.89,South,185,0.0,0.0,53,0.00,CLR,,0.00,WeatherDisplay:10.37,2013-02-01 08:34:00,
2013-02-01 03:39:00,18.1,4.3,27.89,South,185,0.0,0.0,54,0.00,CLR,,0.00,WeatherDisplay:10.37,2013-02-01 08:39:00,
2013-02-01 03:44:00,17.8,3.9,27.89,South,185,0.0,0.0,54,0.00,CLR,,0.00,WeatherDisplay:10.37,2013-02-01 08:44:00,
2013-02-01 03:49:00,17.8,3.9,27.89,South,185,0.0,0.0,54,0.00,CLR,,0.00,WeatherDisplay:10.37,2013-02-01 08:49:00,
2013-02-01 03:54:00,17.1,2.0,27.89,South,185,0.0,0.0,51,0.00,CLR,,0.00,WeatherDisplay:10.37,2013-02-01 08:54:00,
2013-02-01 03:59:00,16.9,0.5,27.89,South,185,0.0,0.0,48,0.00,CLR,,0.00,WeatherDisplay:10.37,2013-02-01 08:59:00,
2013-02-01 04:04:00,16.7,-0.5,27.89,South,185,0.0,0.0,46,0.00,CLR,,0.00,WeatherDisplay:10.37,2013-02-01 09:04:00,
2013-02-01 04:09:00,16.5,-0.7,27.89,South,185,0.0,0.0,46,0.00,CLR,,0.00,WeatherDisplay:10.37,2013-02-01 09:09:00,
2013-02-01 04:14:00,16.0,-2.6,27.89,South,185,0.0,0.0,43,0.00,CLR,,0.00,WeatherDisplay:10.37,2013-02-01 09:14:00,
2013-02-01 04:19:00,15.8,-2.3,27.89,South,185,0.0,0.0,44,0.00,CLR,,0.00,WeatherDisplay:10.37,2013-02-01 09:19:00,
2013-02-01 04:24:00,15.3,-2.8,27.89,South,185,0.0,0.0,44,0.00,CLR,,0.00,WeatherDisplay:10.37,2013-02-01 09:24:00,
2013-02-01 04:29:00,14.7,-3.3,27.89,South,185,0.0,0.0,44,0.00,CLR,,0.00,WeatherDisplay:10.37,2013-02-01 09:29:00,
2013-02-01 04:34:00,14.5,-3.5,27.89,South,185,0.0,0.0,44,0.00,CLR,,0.00,WeatherDisplay:10.37,2013-02-01 09:34:00,
2013-02-01 04:39:00,14.4,-3.6,27.89,South,185,0.0,0.0,44,0.00,CLR,,0.00,WeatherDisplay:10.37,2013-02-01 09:39:00,
2013-02-01 04:44:00,14.2,-3.8,27.89,South,185,0.0,0.0,44,0.00,CLR,,0.00,WeatherDisplay:10.37,2013-02-01 09:44:00,
2013-02-01 04:49:00,13.8,-4.1,27.89,South,185,0.0,0.0,44,0.00,CLR,,0.00,WeatherDisplay:10.37,2013-02-01 09:49:00,
2013-02-01 04:54:00,13.8,-4.1,27.89,South,185,0.0,0.0,44,0.00,CLR,,0.00,WeatherDisplay:10.37,2013-02-01 09:54:00,
2013-02-01 04:59:00,13.8,-4.1,27.89,South,185,0.0,0.0,44,0.00,CLR,,0.00,WeatherDisplay:10.37,2013-02-01 09:59:00,
2013-02-01 05:04:00,13.8,-4.1,27.89,South,185,0.0,0.0,44,0.00,CLR,,0.00,WeatherDisplay:10.37,2013-02-01 10:04:00,
2013-02-01 05:09:00,14.0,-3.9,27.89,South,185,0.0,0.0,44,0.00,CLR,,0.00,WeatherDisplay:10.37,2013-02-01 10:09:00,
2013-02-01 05:14:00,13.8,-5.1,27.89,South,185,0.0,0.0,42,0.00,CLR,,0.00,WeatherDisplay:10.37,2013-02-01 10:14:00,
2013-02-01 05:19:00,14.2,-5.3,27.89,South,185,0.0,0.0,41,0.00,CLR,,0.00,WeatherDisplay:10.37,2013-02-01 10:19:00,
2013-02-01 05:24:00,14.4,-5.1,27.89,South,185,0.0,0.0,41,0.00,CLR,,0.00,WeatherDisplay:10.37,2013-02-01 10:24:00,
2013-02-01 05:29:00,14.5,-4.9,27.89,South,185,0.0,0.0,41,0.00,CLR,,0.00,WeatherDisplay:10.37,2013-02-01 10:29:00,
2013-02-01 05:34:00,15.1,-3.0,27.89,South,185,0.0,0.0,44,0.00,CLR,,0.00,WeatherDisplay:10.37,2013-02-01 10:34:00,
2013-02-01 05:39:00,14.9,-3.1,27.89,South,185,0.0,0.0,44,0.00,CLR,,0.00,WeatherDisplay:10.37,2013-02-01 10:39:00,
2013-02-01 05:44:00,15.1,-3.0,27.89,South,185,0.0,0.0,44,0.00,CLR,,0.00,WeatherDisplay:10.37,2013-02-01 10:44:00,
2013-02-01 05:49:00,14.5,-3.5,27.89,South,185,0.0,0.0,44,0.00,CLR,,0.00,WeatherDisplay:10.37,2013-02-01 10:49:00,
2013-02-01 05:54:00,14.2,-5.3,27.89,South,185,0.0,0.0,41,0.00,CLR,,0.00,WeatherDisplay:10.37,2013-02-01 10:54:00,
2013-02-01 05:59:00,14.2,-5.3,27.89,South,185,0.0,0.0,41,0.00,CLR,,0.00,WeatherDisplay:10.37,2013-02-01 10:59:00,
2013-02-01 06:04:00,14.4,-5.1,27.89,South,185,0.0,0.0,41,0.00,CLR,,0.00,WeatherDisplay:10.37,2013-02-01 11:04:00,
2013-02-01 06:09:00,14.4,-5.1,27.89,South,185,0.0,0.0,41,0.00,CLR,,0.00,WeatherDisplay:10.37,2013-02-01 11:09:00,
2013-02-01 06:14:00,14.2,-5.3,27.89,South,185,0.0,0.0,41,0.00,CLR,,0.00,WeatherDisplay:10.37,2013-02-01 11:14:00,
2013-02-01 06:19:00,14.0,-4.9,27.89,South,185,0.0,0.0,42,0.00,CLR,,0.00,WeatherDisplay:10.37,2013-02-01 11:19:00,
2013-02-01 06:24:00,14.0,-4.9,27.89,South,185,0.0,0.0,42,0.00,CLR,,0.00,WeatherDisplay:10.37,2013-02-01 11:24:00,
2013-02-01 06:29:00,13.8,-5.1,27.89,South,185,0.0,0.0,42,0.00,CLR,,0.00,WeatherDisplay:10.37,2013-02-01 11:29:00,
2013-02-01 06:34:00,13.8,-5.1,27.89,South,185,0.0,0.0,42,0.00,CLR,,0.00,WeatherDisplay:10.37,2013-02-01 11:34:00,
2013-02-01 06:39:00,14.0,-4.9,27.89,South,185,0.0,0.0,42,0.00,CLR,,0.00,WeatherDisplay:10.37,2013-02-01 11:39:00,
2013-02-01 06:44:00,13.8,-5.1,27.89,South,185,0.0,0.0,42,0.00,CLR,,0.00,WeatherDisplay:10.37,2013-02-01 11:44:00,
2013-02-01 06:49:00,14.2,-5.3,27.89,South,185,0.0,0.0,41,0.00,CLR,,0.00,WeatherDisplay:10.37,2013-02-01 11:49:00,
2013-02-01 06:54:00,14.2,-5.3,27.89,South,185,0.0,0.0,41,0.00,CLR,,0.00,WeatherDisplay:10.37,2013-02-01 11:54:00,
2013-02-01 06:59:00,14.0,-4.9,27.89,South,185,0.0,0.0,42,0.00,CLR,,0.00,WeatherDisplay:10.37,2013-02-01 11:59:00,
2013-02-01 07:04:00,14.2,-5.3,27.89,South,185,0.0,0.0,41,0.00,CLR,,0.00,WeatherDisplay:10.37,2013-02-01 12:04:00,
2013-02-01 07:09:00,13.8,-5.1,27.89,South,185,0.0,0.0,42,0.00,CLR,,0.00,WeatherDisplay:10.37,2013-02-01 12:09:00,
2013-02-01 07:14:00,14.2,-5.3,27.89,South,185,0.0,0.0,41,0.00,CLR,,0.00,WeatherDisplay:10.37,2013-02-01 12:14:00,
2013-02-01 07:19:00,14.2,-5.3,27.89,South,185,0.0,0.0,41,0.00,CLR,,0.00,WeatherDisplay:10.37,2013-02-01 12:19:00,
2013-02-01 07:24:00,14.2,-5.3,27.89,South,185,0.0,0.0,41,0.00,CLR,,0.00,WeatherDisplay:10.37,2013-02-01 12:24:00,
2013-02-01 07:29:00,14.2,-5.3,27.89,South,185,0.0,0.0,41,0.00,CLR,,0.00,WeatherDisplay:10.37,2013-02-01 12:29:00,
2013-02-01 07:34:00,14.0,-4.9,27.89,South,185,0.0,0.0,42,0.00,CLR,,0.00,WeatherDisplay:10.37,2013-02-01 12:34:00,
2013-02-01 07:39:00,13.8,-5.1,27.89,South,185,0.0,0.0,42,0.00,CLR,,0.00,WeatherDisplay:10.37,2013-02-01 12:39:00,
2013-02-01 07:44:00,13.8,-5.1,27.89,South,182,0.0,0.0,42,0.00,CLR,,0.00,WeatherDisplay:10.37,2013-02-01 12:44:00,
2013-02-01 07:49:00,13.8,-5.1,27.89,South,185,0.0,0.0,42,0.00,CLR,,0.00,WeatherDisplay:10.37,2013-02-01 12:49:00,
2013-02-01 07:54:00,13.8,-5.1,27.89,South,185,0.0,0.0,42,0.00,CLR,,0.00,WeatherDisplay:10.37,2013-02-01 12:54:00,
2013-02-01 07:59:00,14.2,-5.3,27.89,South,185,0.0,0.0,41,0.00,CLR,,0.00,WeatherDisplay:10.37,2013-02-01 12:59:00,
2013-02-01 08:04:00,14.4,-5.1,27.89,South,185,0.0,0.0,41,0.00,CLR,,0.00,WeatherDisplay:10.37,2013-02-01 13:04:00,
2013-02-01 08:09:00,14.5,-4.9,27.89,South,185,0.0,0.0,41,0.00,CLR,,0.00,WeatherDisplay:10.37,2013-02-01 13:09:00,
2013-02-01 08:14:00,14.7,-4.8,27.89,South,185,0.0,0.0,41,0.00,CLR,,0.00,WeatherDisplay:10.37,2013-02-01 13:14:00,
2013-02-01 08:19:00,15.1,-4.4,27.89,South,185,0.0,0.0,41,0.00,CLR,,0.00,WeatherDisplay:10.37,2013-02-01 13:19:00,
2013-02-01 08:24:00,15.3,-4.3,27.89,South,185,0.0,0.0,41,0.00,CLR,,0.00,WeatherDisplay:10.37,2013-02-01 13:24:00,
2013-02-01 08:29:00,15.4,-4.1,27.89,South,185,0.0,0.0,41,0.00,CLR,,0.00,WeatherDisplay:10.37,2013-02-01 13:29:00,
2013-02-01 08:34:00,15.6,-3.9,27.89,South,185,0.0,0.0,41,0.00,CLR,,0.00,WeatherDisplay:10.37,2013-02-01 13:34:00,
2013-02-01 08:39:00,15.6,-3.9,27.89,South,185,0.0,0.0,41,0.00,CLR,,0.00,WeatherDisplay:10.37,2013-02-01 13:39:00,
2013-02-01 08:44:00,15.8,-3.8,27.89,South,185,0.0,0.0,41,0.00,CLR,,0.00,WeatherDisplay:10.37,2013-02-01 13:44:00,
2013-02-01 08:49:00,16.2,-3.5,27.89,South,185,0.0,0.0,41,0.00,CLR,,0.00,WeatherDisplay:10.37,2013-02-01 13:49:00,
2013-02-01 08:54:00,16.0,-3.6,27.89,South,185,0.0,0.0,41,0.00,CLR,,0.00,WeatherDisplay:10.37,2013-02-01 13:54:00,
2013-02-01 08:59:00,16.3,-3.3,27.89,South,185,0.0,0.0,41,0.00,CLR,,0.00,WeatherDisplay:10.37,2013-02-01 13:59:00,
2013-02-01 09:04:00,17.1,-2.6,27.89,South,185,0.0,0.0,41,0.00,CLR,,0.00,WeatherDisplay:10.37,2013-02-01 14:04:00,
2013-02-01 09:09:00,17.8,-2.5,27.89,South,185,0.0,0.0,40,0.00,CLR,,0.00,WeatherDisplay:10.37,2013-02-01 14:09:00,
2013-02-01 09:14:00,17.6,-2.1,27.89,South,185,0.0,0.0,41,0.00,CLR,,0.00,WeatherDisplay:10.37,2013-02-01 14:14:00,
2013-02-01 09:19:00,17.8,-2.5,27.89,South,185,0.0,0.0,40,0.00,CLR,,0.00,WeatherDisplay:10.37,2013-02-01 14:19:00,
2013-02-01 09:24:00,19.2,-1.2,27.89,South,185,0.0,0.0,40,0.00,CLR,,0.00,WeatherDisplay:10.37,2013-02-01 14:24:00,
2013-02-01 09:29:00,21.2,0.6,27.89,South,185,0.0,0.0,40,0.00,CLR,,0.00,WeatherDisplay:10.37,2013-02-01 14:29:00,
2013-02-01 09:34:00,19.2,-1.2,27.89,South,185,0.0,0.0,40,0.00,CLR,,0.00,WeatherDisplay:10.37,2013-02-01 14:34:00,
2013-02-01 09:39:00,17.8,-2.5,27.89,South,185,0.0,0.0,40,0.00,CLR,,0.00,WeatherDisplay:10.37,2013-02-01 14:39:00,
2013-02-01 09:44:00,17.8,-2.5,27.89,South,185,0.0,0.0,40,0.00,CLR,,0.00,WeatherDisplay:10.37,2013-02-01 14:44:00,
2013-02-01 09:49:00,17.4,-2.3,27.89,South,185,0.0,0.0,41,0.00,CLR,,0.00,WeatherDisplay:10.37,2013-02-01 14:49:00,
2013-02-01 09:54:00,17.1,-2.6,27.89,South,185,0.0,0.0,41,0.00,CLR,,0.00,WeatherDisplay:10.37,2013-02-01 14:54:00,
2013-02-01 09:59:00,17.4,-2.3,27.89,South,185,0.0,0.0,41,0.00,CLR,,0.00,WeatherDisplay:10.37,2013-02-01 14:59:00,
2013-02-01 10:04:00,17.4,-2.3,27.89,South,185,0.0,0.0,41,0.00,CLR,,0.00,WeatherDisplay:10.37,2013-02-01 15:04:00,
2013-02-01 10:09:00,16.7,-3.0,27.89,South,185,0.0,0.0,41,0.00,CLR,,0.00,WeatherDisplay:10.37,2013-02-01 15:09:00,
2013-02-01 10:14:00,17.1,-2.6,27.89,South,185,0.0,0.0,41,0.00,CLR,,0.00,WeatherDisplay:10.37,2013-02-01 15:14:00,
2013-02-01 10:19:00,17.6,-2.1,27.89,South,185,0.0,0.0,41,0.00,CLR,,0.00,WeatherDisplay:10.37,2013-02-01 15:19:00,
2013-02-01 10:24:00,17.1,-2.6,27.89,South,185,0.0,0.0,41,0.00,CLR,,0.00,WeatherDisplay:10.37,2013-02-01 15:24:00,
2013-02-01 10:29:00,17.1,-2.6,27.89,South,185,0.0,0.0,41,0.00,CLR,,0.00,WeatherDisplay:10.37,2013-02-01 15:29:00,
2013-02-01 10:34:00,17.4,-2.3,27.89,South,185,0.0,0.0,41,0.00,CLR,,0.00,WeatherDisplay:10.37,2013-02-01 15:34:00,
2013-02-01 10:39:00,17.8,-2.5,27.89,South,185,0.0,0.0,40,0.00,CLR,,0.00,WeatherDisplay:10.37,2013-02-01 15:39:00,
2013-02-01 10:44:00,17.2,-2.5,27.89,South,185,0.0,0.0,41,0.00,CLR,,0.00,WeatherDisplay:10.37,2013-02-01 15:44:00,
2013-02-01 10:49:00,17.6,-2.1,27.89,South,185,0.0,0.0,41,0.00,CLR,,0.00,WeatherDisplay:10.37,2013-02-01 15:49:00,
2013-02-01 10:54:00,18.7,-1.7,27.89,South,185,0.0,0.0,40,0.00,CLR,,0.00,WeatherDisplay:10.37,2013-02-01 15:54:00,
2013-02-01 10:59:00,18.5,-1.8,27.89,South,185,0.0,0.0,40,0.00,CLR,,0.00,WeatherDisplay:10.37,2013-02-01 15:59:00,
2013-02-01 11:04:00,17.6,-2.1,27.89,South,185,0.0,0.0,41,0.00,CLR,,0.00,WeatherDisplay:10.37,2013-02-01 16:04:00,
2013-02-01 11:09:00,16.7,-3.0,27.89,South,185,0.0,0.0,41,0.00,CLR,,0.00,WeatherDisplay:10.37,2013-02-01 16:09:00,
2013-02-01 11:14:00,16.5,-3.1,27.89,South,185,0.0,0.0,41,0.00,CLR,,0.00,WeatherDisplay:10.37,2013-02-01 16:14:00,
2013-02-01 11:19:00,16.7,-3.0,27.89,South,185,0.0,0.0,41,0.00,CLR,,0.00,WeatherDisplay:10.37,2013-02-01 16:19:00,
2013-02-01 11:24:00,16.7,-3.0,27.89,South,185,0.0,0.0,41,0.00,CLR,,0.00,WeatherDisplay:10.37,2013-02-01 16:24:00,
2013-02-01 11:29:00,16.7,-3.0,27.89,South,185,0.0,0.0,41,0.00,CLR,,0.00,WeatherDisplay:10.37,2013-02-01 16:29:00,
2013-02-01 11:34:00,17.1,-2.6,27.89,South,185,0.0,0.0,41,0.00,CLR,,0.00,WeatherDisplay:10.37,2013-02-01 16:34:00,
2013-02-01 11:39:00,17.6,-2.1,27.89,South,185,0.0,0.0,41,0.00,CLR,,0.00,WeatherDisplay:10.37,2013-02-01 16:39:00,
2013-02-01 11:44:00,18.3,-2.0,27.89,South,185,0.0,0.0,40,0.00,CLR,,0.00,WeatherDisplay:10.37,2013-02-01 16:44:00,
2013-02-01 11:49:00,18.7,-1.7,27.89,South,185,0.0,0.0,40,0.00,CLR,,0.00,WeatherDisplay:10.37,2013-02-01 16:49:00,
2013-02-01 11:54:00,17.8,-2.5,27.89,South,185,0.0,0.0,40,0.00,CLR,,0.00,WeatherDisplay:10.37,2013-02-01 16:54:00,
2013-02-01 11:59:00,17.8,-2.5,27.89,South,185,0.0,0.0,40,0.00,CLR,,0.00,WeatherDisplay:10.37,2013-02-01 16:59:00,
2013-02-01 12:04:00,18.1,-2.2,27.89,South,185,0.0,0.0,40,0.00,CLR,,0.00,WeatherDisplay:10.37,2013-02-01 17:04:00,
2013-02-01 12:09:00,17.6,-2.1,27.89,South,185,0.0,0.0,41,0.00,CLR,,0.00,WeatherDisplay:10.37,2013-02-01 17:09:00,
2013-02-01 12:14:00,17.8,-2.5,27.89,South,185,0.0,0.0,40,0.00,CLR,,0.00,WeatherDisplay:10.37,2013-02-01 17:14:00,
2013-02-01 12:19:00,19.2,-1.2,27.89,South,185,0.0,0.0,40,0.00,CLR,,0.00,WeatherDisplay:10.37,2013-02-01 17:19:00,
2013-02-01 12:24:00,19.8,-0.7,27.89,South,185,0.0,0.0,40,0.00,CLR,,0.00,WeatherDisplay:10.37,2013-02-01 17:24:00,
2013-02-01 12:29:00,19.9,-0.5,27.89,South,185,0.0,0.0,40,0.00,CLR,,0.00,WeatherDisplay:10.37,2013-02-01 17:29:00,
2013-02-01 12:34:00,20.5,-0.1,27.89,South,185,0.0,0.0,40,0.00,CLR,,0.00,WeatherDisplay:10.37,2013-02-01 17:34:00,
2013-02-01 12:39:00,19.9,-0.5,27.89,South,185,0.0,0.0,40,0.00,CLR,,0.00,WeatherDisplay:10.37,2013-02-01 17:39:00,
2013-02-01 12:44:00,19.8,-0.7,27.89,South,185,0.0,0.0,40,0.00,CLR,,0.00,WeatherDisplay:10.37,2013-02-01 17:44:00,
2013-02-01 12:49:00,19.2,-1.2,27.89,South,185,0.0,0.0,40,0.00,CLR,,0.00,WeatherDisplay:10.37,2013-02-01 17:49:00,
2013-02-01 12:54:00,19.4,-1.0,27.89,South,185,0.0,0.0,40,0.00,CLR,,0.00,WeatherDisplay:10.37,2013-02-01 17:54:00,
2013-02-01 12:59:00,20.7,0.1,27.89,South,185,0.0,0.0,40,0.00,CLR,,0.00,WeatherDisplay:10.37,2013-02-01 17:59:00,
2013-02-01 13:04:00,20.3,-0.2,27.89,South,185,0.0,0.0,40,0.00,CLR,,0.00,WeatherDisplay:10.37,2013-02-01 18:04:00,
2013-02-01 13:09:00,20.1,-0.4,27.89,South,185,0.0,0.0,40,0.00,CLR,,0.00,WeatherDisplay:10.37,2013-02-01 18:09:00,
2013-02-01 13:14:00,20.5,-0.1,27.89,South,185,0.0,0.0,40,0.00,CLR,,0.00,WeatherDisplay:10.37,2013-02-01 18:14:00,
2013-02-01 13:19:00,19.4,-1.0,27.89,South,185,0.0,0.0,40,0.00,CLR,,0.00,WeatherDisplay:10.37,2013-02-01 18:19:00,
2013-02-01 13:24:00,19.2,-1.2,27.89,South,185,0.0,0.0,40,0.00,CLR,,0.00,WeatherDisplay:10.37,2013-02-01 18:24:00,
2013-02-01 13:29:00,19.2,-1.2,27.89,South,185,0.0,0.0,40,0.00,CLR,,0.00,WeatherDisplay:10.37,2013-02-01 18:29:00,
2013-02-01 13:34:00,19.6,-0.9,27.89,South,185,0.0,0.0,40,0.00,CLR,,0.00,WeatherDisplay:10.37,2013-02-01 18:34:00,
2013-02-01 13:39:00,19.2,-1.2,27.89,South,185,0.0,0.0,40,0.00,CLR,,0.00,WeatherDisplay:10.37,2013-02-01 18:39:00,
2013-02-01 13:44:00,18.5,-1.8,27.89,South,185,0.0,0.0,40,0.00,CLR,,0.00,WeatherDisplay:10.37,2013-02-01 18:44:00,
2013-02-01 13:49:00,20.1,-0.4,27.89,South,185,0.0,0.0,40,0.00,CLR,,0.00,WeatherDisplay:10.37,2013-02-01 18:49:00,
2013-02-01 13:54:00,20.3,-0.2,27.89,South,185,0.0,0.0,40,0.00,CLR,,0.00,WeatherDisplay:10.37,2013-02-01 18:54:00,
2013-02-01 13:59:00,20.7,0.1,27.89,South,185,0.0,0.0,40,0.00,CLR,,0.00,WeatherDisplay:10.37,2013-02-01 18:59:00,
2013-02-01 14:04:00,20.1,-0.4,27.89,South,185,3.5,0.0,40,0.00,CLR,,0.00,WeatherDisplay:10.37,2013-02-01 19:04:00,
2013-02-01 14:09:00,19.4,-2.1,27.89,South,185,3.5,0.0,38,0.00,CLR,,0.00,WeatherDisplay:10.37,2013-02-01 19:09:00,
2013-02-01 14:14:00,18.5,-2.9,27.89,South,185,3.5,0.0,38,0.00,CLR,,0.00,WeatherDisplay:10.37,2013-02-01 19:14:00,
2013-02-01 14:19:00,18.5,-2.9,27.89,South,185,5.8,5.8,38,0.00,CLR,,0.00,WeatherDisplay:10.37,2013-02-01 19:19:00,
2013-02-01 14:24:00,19.0,-2.4,27.89,South,185,2.7,2.7,38,0.00,CLR,,0.00,WeatherDisplay:10.37,2013-02-01 19:24:00,
2013-02-01 14:29:00,19.0,-2.4,27.89,South,185,5.8,5.8,38,0.00,CLR,,0.00,WeatherDisplay:10.37,2013-02-01 19:29:00,
2013-02-01 14:34:00,19.6,-2.5,27.89,South,185,4.6,4.6,37,0.00,CLR,,0.00,WeatherDisplay:10.37,2013-02-01 19:34:00,
2013-02-01 14:39:00,20.1,-2.0,27.89,South,185,5.8,5.8,37,0.00,CLR,,0.00,WeatherDisplay:10.37,2013-02-01 19:39:00,
2013-02-01 14:44:00,20.1,-2.0,27.89,South,185,4.6,4.6,37,0.00,CLR,,0.00,WeatherDisplay:10.37,2013-02-01 19:44:00,
2013-02-01 14:49:00,19.9,-2.2,27.89,South,185,3.5,0.0,37,0.00,CLR,,0.00,WeatherDisplay:10.37,2013-02-01 19:49:00,
2013-02-01 14:54:00,19.0,-2.4,27.89,South,185,5.8,5.8,38,0.00,CLR,,0.00,WeatherDisplay:10.37,2013-02-01 19:54:00,
2013-02-01 14:59:00,18.0,-3.4,27.89,South,185,5.8,5.8,38,0.00,CLR,,0.00,WeatherDisplay:10.37,2013-02-01 19:59:00,
2013-02-01 15:04:00,17.8,-3.6,27.89,South,185,2.3,2.7,38,0.00,CLR,,0.00,WeatherDisplay:10.37,2013-02-01 20:04:00,
2013-02-01 15:09:00,17.8,-3.6,27.89,South,185,2.3,0.0,38,0.00,CLR,,0.00,WeatherDisplay:10.37,2013-02-01 20:09:00,
2013-02-01 15:14:00,18.7,-2.8,27.89,South,185,2.3,2.3,38,0.00,CLR,,0.00,WeatherDisplay:10.37,2013-02-01 20:14:00,
2013-02-01 15:19:00,19.2,-2.3,27.89,South,185,4.6,4.6,38,0.00,CLR,,0.00,WeatherDisplay:10.37,2013-02-01 20:19:00,
2013-02-01 15:24:00,19.9,-2.2,27.89,South,185,4.5,0.0,37,0.00,CLR,,0.00,WeatherDisplay:10.37,2013-02-01 20:24:00,
2013-02-01 15:29:00,19.2,-2.3,27.89,South,185,2.7,0.0,38,0.00,CLR,,0.00,WeatherDisplay:10.37,2013-02-01 20:29:00,
2013-02-01 15:34:00,18.7,-2.8,27.89,South,185,3.5,3.5,38,0.00,CLR,,0.00,WeatherDisplay:10.37,2013-02-01 20:34:00,
2013-02-01 15:39:00,17.6,-3.7,27.89,South,185,2.3,0.0,38,0.00,CLR,,0.00,WeatherDisplay:10.37,2013-02-01 20:39:00,
2013-02-01 15:44:00,17.6,-3.7,27.89,South,185,3.5,0.0,38,0.00,CLR,,0.00,WeatherDisplay:10.37,2013-02-01 20:44:00,
2013-02-01 15:49:00,17.6,-3.7,27.89,South,185,2.3,0.0,38,0.00,CLR,,0.00,WeatherDisplay:10.37,2013-02-01 20:49:00,
2013-02-01 15:54:00,17.6,-3.7,27.89,South,185,0.0,0.0,38,0.00,CLR,,0.00,WeatherDisplay:10.37,2013-02-01 20:54:00,
2013-02-01 15:59:00,18.1,-3.3,27.89,South,185,3.5,0.0,38,0.00,CLR,,0.00,WeatherDisplay:10.37,2013-02-01 20:59:00,
2013-02-01 16:04:00,18.0,-3.4,27.89,South,185,3.5,3.5,38,0.00,CLR,,0.00,WeatherDisplay:10.37,2013-02-01 21:04:00,
2013-02-01 16:09:00,17.8,-3.6,27.89,South,185,3.6,0.0,38,0.00,CLR,,0.00,WeatherDisplay:10.37,2013-02-01 21:09:00,
2013-02-01 16:14:00,17.8,-3.6,27.89,South,185,0.0,2.7,38,0.00,CLR,,0.00,WeatherDisplay:10.37,2013-02-01 21:14:00,
2013-02-01 16:19:00,17.2,-4.1,27.89,South,185,5.8,5.8,38,0.00,CLR,,0.00,WeatherDisplay:10.37,2013-02-01 21:19:00,
2013-02-01 16:24:00,17.1,-4.2,27.89,South,185,0.0,2.7,38,0.00,CLR,,0.00,WeatherDisplay:10.37,2013-02-01 21:24:00,
2013-02-01 16:29:00,17.6,-3.7,27.89,South,185,3.5,3.5,38,0.00,CLR,,0.00,WeatherDisplay:10.37,2013-02-01 21:29:00,
2013-02-01 16:34:00,17.4,-3.9,27.89,South,185,4.6,4.6,38,0.00,CLR,,0.00,WeatherDisplay:10.37,2013-02-01 21:34:00,
2013-02-01 16:39:00,17.4,-3.9,27.89,South,185,4.6,4.6,38,0.00,CLR,,0.00,WeatherDisplay:10.37,2013-02-01 21:39:00,
2013-02-01 16:45:00,17.2,-4.1,27.89,South,185,3.5,3.5,38,0.00,CLR,,0.00,WeatherDisplay:10.37,2013-02-01 21:45:00,
2013-02-01 16:50:00,16.0,-5.2,27.89,South,185,4.6,4.6,38,0.00,CLR,,0.00,WeatherDisplay:10.37,2013-02-01 21:50:00,
2013-02-01 16:55:00,15.3,-5.3,27.89,South,185,3.5,3.5,39,0.00,CLR,,0.00,WeatherDisplay:10.37,2013-02-01 21:55:00,
2013-02-01 17:00:00,15.1,-5.5,27.89,South,185,2.3,3.1,39,0.00,CLR,,0.00,WeatherDisplay:10.37,2013-02-01 22:00:00,
2013-02-01 17:05:00,14.9,-5.6,27.89,South,185,2.3,3.1,39,0.00,CLR,,0.00,WeatherDisplay:10.37,2013-02-01 22:05:00,
2013-02-01 17:10:00,14.4,-6.1,27.89,South,185,3.5,3.5,39,0.00,CLR,,0.00,WeatherDisplay:10.37,2013-02-01 22:10:00,
2013-02-01 17:15:00,14.4,-6.1,27.89,South,185,2.3,2.7,39,0.00,CLR,,0.00,WeatherDisplay:10.37,2013-02-01 22:15:00,
2013-02-01 17:20:00,14.2,-6.3,27.89,South,185,2.3,0.0,39,0.00,CLR,,0.00,WeatherDisplay:10.37,2013-02-01 22:20:00,
2013-02-01 17:25:00,13.8,-6.6,27.89,South,185,2.3,2.7,39,0.00,CLR,,0.00,WeatherDisplay:10.37,2013-02-01 22:25:00,
2013-02-01 17:30:00,13.6,-6.8,27.89,South,185,6.9,6.9,39,0.00,CLR,,0.00,WeatherDisplay:10.37,2013-02-01 22:30:00,
2013-02-01 17:35:00,13.3,-7.1,27.89,South,185,2.3,0.0,39,0.00,CLR,,0.00,WeatherDisplay:10.37,2013-02-01 22:35:00,
2013-02-01 17:40:00,12.7,-7.6,27.89,South,185,0.0,2.2,39,0.00,CLR,,0.00,WeatherDisplay:10.37,2013-02-01 22:40:00,
2013-02-01 17:45:00,12.4,-7.9,27.89,South,185,3.6,0.0,39,0.00,CLR,,0.00,WeatherDisplay:10.37,2013-02-01 22:45:00,
2013-02-01 17:50:00,12.7,-7.6,27.89,South,185,3.5,3.5,39,0.00,CLR,,0.00,WeatherDisplay:10.37,2013-02-01 22:50:00,
2013-02-01 17:55:00,12.7,-7.6,27.89,South,185,2.3,2.3,39,0.00,CLR,,0.00,WeatherDisplay:10.37,2013-02-01 22:55:00,
2013-02-01 18:00:00,12.9,-7.4,27.89,South,185,4.6,4.6,39,0.00,CLR,,0.00,WeatherDisplay:10.37,2013-02-01 23:00:00,
2013-02-01 18:05:00,12.9,-7.4,27.89,South,185,2.3,0.0,39,0.00,CLR,,0.00,WeatherDisplay:10.37,2013-02-01 23:05:00,
2013-02-01 18:10:00,13.3,-7.1,27.89,South,185,4.6,4.6,39,0.00,CLR,,0.00,WeatherDisplay:10.37,2013-02-01 23:10:00,
2013-02-01 18:15:00,13.1,-7.3,27.89,South,185,3.5,3.5,39,0.00,CLR,,0.00,WeatherDisplay:10.37,2013-02-01 23:15:00,
2013-02-01 18:20:00,13.3,-7.1,27.89,South,185,2.3,0.0,39,0.00,CLR,,0.00,WeatherDisplay:10.37,2013-02-01 23:20:00,
2013-02-01 18:25:00,13.5,-6.9,27.89,South,185,3.5,3.5,39,0.00,CLR,,0.00,WeatherDisplay:10.37,2013-02-01 23:25:00,
2013-02-01 18:30:00,13.5,-6.9,27.89,South,185,2.3,2.3,39,0.00,CLR,,0.00,WeatherDisplay:10.37,2013-02-01 23:30:00,
2013-02-01 18:35:00,13.5,-6.9,27.89,South,185,3.5,3.5,39,0.00,CLR,,0.00,WeatherDisplay:10.37,2013-02-01 23:35:00,
2013-02-01 18:40:00,13.1,-7.3,27.89,South,185,2.3,0.0,39,0.00,CLR,,0.00,WeatherDisplay:10.37,2013-02-01 23:40:00,
2013-02-01 18:45:00,12.7,-7.6,27.89,South,185,3.5,3.5,39,0.00,CLR,,0.00,WeatherDisplay:10.37,2013-02-01 23:45:00,
2013-02-01 18:50:00,12.2,-8.1,27.89,South,185,3.5,3.5,39,0.00,CLR,,0.00,WeatherDisplay:10.37,2013-02-01 23:50:00,
2013-02-01 18:55:00,12.0,-8.2,27.89,South,185,2.3,3.1,39,0.00,CLR,,0.00,WeatherDisplay:10.37,2013-02-01 23:55:00,
2013-02-01 19:00:00,11.8,-8.4,27.89,South,185,3.5,0.0,39,0.00,CLR,,0.00,WeatherDisplay:10.37,2013-02-02 00:00:00,
2013-02-01 19:05:00,12.0,-8.2,27.89,South,185,3.5,0.0,39,0.00,CLR,,0.00,WeatherDisplay:10.37,2013-02-02 00:05:00,
2013-02-01 19:10:00,12.2,-8.1,27.89,South,185,3.5,4.0,39,0.00,CLR,,0.00,WeatherDisplay:10.37,2013-02-02 00:10:00,
2013-02-01 19:15:00,12.2,-8.1,27.89,South,185,3.5,4.0,39,0.00,CLR,,0.00,WeatherDisplay:10.37,2013-02-02 00:15:00,
2013-02-01 19:20:00,12.2,-8.1,27.89,South,185,3.5,4.0,39,0.00,CLR,,0.00,WeatherDisplay:10.37,2013-02-02 00:20:00,
2013-02-01 19:25:00,11.8,-8.4,27.89,South,185,3.5,4.0,39,0.00,CLR,,0.00,WeatherDisplay:10.37,2013-02-02 00:25:00,
2013-02-01 19:30:00,11.7,-8.6,27.89,South,185,3.5,4.0,39,0.00,CLR,,0.00,WeatherDisplay:10.37,2013-02-02 00:30:00,
2013-02-01 19:35:00,11.3,-8.9,27.89,South,185,3.5,4.0,39,0.00,CLR,,0.00,WeatherDisplay:10.37,2013-02-02 00:35:00,
2013-02-01 19:40:00,10.9,-9.2,27.89,South,185,3.5,4.0,39,0.00,CLR,,0.00,WeatherDisplay:10.37,2013-02-02 00:40:00,
2013-02-01 19:45:00,10.8,-9.4,27.89,South,185,2.3,0.0,39,0.00,CLR,,0.00,WeatherDisplay:10.37,2013-02-02 00:45:00,
2013-02-01 19:50:00,10.8,-9.4,27.89,South,185,2.3,0.0,39,0.00,CLR,,0.00,WeatherDisplay:10.37,2013-02-02 00:50:00,
2013-02-01 19:55:00,10.4,-9.7,27.89,South,185,0.0,0.0,39,0.00,CLR,,0.00,WeatherDisplay:10.37,2013-02-02 00:55:00,
2013-02-01 20:00:00,10.6,-9.5,27.89,South,185,0.0,0.0,39,0.00,CLR,,0.00,WeatherDisplay:10.37,2013-02-02 01:00:00,
2013-02-01 20:05:00,10.2,-9.9,27.89,South,185,2.3,0.0,39,0.00,CLR,,0.00,WeatherDisplay:10.37,2013-02-02 01:05:00,
2013-02-01 20:10:00,10.0,-10.0,27.89,South,185,2.3,0.0,39,0.00,CLR,,0.00,WeatherDisplay:10.37,2013-02-02 01:10:00,
2013-02-01 20:15:00,9.9,-10.2,27.89,South,185,0.0,0.0,39,0.00,CLR,,0.00,WeatherDisplay:10.37,2013-02-02 01:15:00,
2013-02-01 20:20:00,9.9,-10.2,27.89,South,185,2.3,0.0,39,0.00,CLR,,0.00,WeatherDisplay:10.37,2013-02-02 01:20:00,
2013-02-01 20:25:00,9.7,-10.4,27.89,South,185,3.5,0.0,39,0.00,CLR,,0.00,WeatherDisplay:10.37,2013-02-02 01:25:00,
2013-02-01 20:30:00,9.9,-10.2,27.89,South,185,0.0,0.0,39,0.00,CLR,,0.00,WeatherDisplay:10.37,2013-02-02 01:30:00,
2013-02-01 20:35:00,9.7,-10.4,27.89,South,185,3.5,0.0,39,0.00,CLR,,0.00,WeatherDisplay:10.37,2013-02-02 01:35:00,
2013-02-01 20:40:00,9.5,-10.5,27.89,South,185,0.0,0.0,39,0.00,CLR,,0.00,WeatherDisplay:10.37,2013-02-02 01:40:00,
2013-02-01 20:45:00,9.1,-10.9,27.89,South,185,0.0,0.0,39,0.00,CLR,,0.00,WeatherDisplay:10.37,2013-02-02 01:45:00,
2013-02-01 20:50:00,9.0,-11.0,27.89,South,185,0.0,0.0,39,0.00,CLR,,0.00,WeatherDisplay:10.37,2013-02-02 01:50:00,
2013-02-01 20:55:00,9.1,-10.9,27.89,South,185,2.3,0.0,39,0.00,CLR,,0.00,WeatherDisplay:10.37,2013-02-02 01:55:00,
2013-02-01 21:00:00,9.0,-11.0,27.89,South,185,0.0,0.0,39,0.00,CLR,,0.00,WeatherDisplay:10.37,2013-02-02 02:00:00,
2013-02-01 21:05:00,9.1,-10.9,27.89,South,185,0.0,0.0,39,0.00,CLR,,0.00,WeatherDisplay:10.37,2013-02-02 02:05:00,
2013-02-01 21:10:00,8.8,-11.2,27.89,South,185,0.0,0.0,39,0.00,CLR,,0.00,WeatherDisplay:10.37,2013-02-02 02:10:00,
2013-02-01 21:15:00,8.6,-11.3,27.89,South,185,0.0,0.0,39,0.00,CLR,,0.00,WeatherDisplay:10.37,2013-02-02 02:15:00,
2013-02-01 21:20:00,8.4,-11.5,27.89,South,185,0.0,0.0,39,0.00,CLR,,0.00,WeatherDisplay:10.37,2013-02-02 02:20:00,
2013-02-01 21:25:00,8.4,-11.5,27.89,South,185,0.0,0.0,39,0.00,CLR,,0.00,WeatherDisplay:10.37,2013-02-02 02:25:00,
2013-02-01 21:30:00,8.2,-11.7,27.89,South,185,0.0,0.0,39,0.00,CLR,,0.00,WeatherDisplay:10.37,2013-02-02 02:30:00,
2013-02-01 21:35:00,8.1,-11.8,27.89,South,185,0.0,0.0,39,0.00,CLR,,0.00,WeatherDisplay:10.37,2013-02-02 02:35:00,
2013-02-01 21:40:00,8.4,-11.5,27.89,South,185,3.5,3.5,39,0.00,CLR,,0.00,WeatherDisplay:10.37,2013-02-02 02:40:00,
2013-02-01 21:45:00,8.6,-11.3,27.89,South,185,2.3,0.0,39,0.00,CLR,,0.00,WeatherDisplay:10.37,2013-02-02 02:45:00,
2013-02-01 21:50:00,8.4,-11.5,27.89,South,185,0.0,0.0,39,0.00,CLR,,0.00,WeatherDisplay:10.37,2013-02-02 02:50:00,
2013-02-01 21:55:00,8.4,-11.5,27.89,South,185,0.0,0.0,39,0.00,CLR,,0.00,WeatherDisplay:10.37,2013-02-02 02:55:00,
2013-02-01 22:00:00,8.4,-11.5,27.89,South,185,0.0,0.0,39,0.00,CLR,,0.00,WeatherDisplay:10.37,2013-02-02 03:00:00,
2013-02-01 22:05:00,8.2,-11.7,27.89,South,185,0.0,2.2,39,0.00,CLR,,0.00,WeatherDisplay:10.37,2013-02-02 03:05:00,
2013-02-01 22:10:00,8.4,-11.5,27.89,South,185,2.3,0.0,39,0.00,CLR,,0.00,WeatherDisplay:10.37,2013-02-02 03:10:00,
2013-02-01 22:15:00,8.4,-11.5,27.89,South,185,0.0,0.0,39,0.00,CLR,,0.00,WeatherDisplay:10.37,2013-02-02 03:15:00,
2013-02-01 22:20:00,8.1,-11.8,27.89,South,185,0.0,0.0,39,0.00,CLR,,0.00,WeatherDisplay:10.37,2013-02-02 03:20:00,
2013-02-01 22:25:00,8.1,-11.8,27.89,South,185,2.7,0.0,39,0.00,CLR,,0.00,WeatherDisplay:10.37,2013-02-02 03:25:00,
2013-02-01 22:30:00,8.1,-11.8,27.89,South,185,0.0,0.0,39,0.00,CLR,,0.00,WeatherDisplay:10.37,2013-02-02 03:30:00,
2013-02-01 22:35:00,8.2,-11.7,27.89,South,185,0.0,0.0,39,0.00,CLR,,0.00,WeatherDisplay:10.37,2013-02-02 03:35:00,
2013-02-01 22:40:00,8.2,-11.7,27.89,South,185,0.0,0.0,39,0.00,CLR,,0.00,WeatherDisplay:10.37,2013-02-02 03:40:00,
2013-02-01 22:45:00,7.9,-12.0,27.89,South,185,0.0,0.0,39,0.00,CLR,,0.00,WeatherDisplay:10.37,2013-02-02 03:45:00,
2013-02-01 22:50:00,8.1,-11.8,27.89,South,185,0.0,0.0,39,0.00,CLR,,0.00,WeatherDisplay:10.37,2013-02-02 03:50:00,
2013-02-01 22:55:00,7.9,-12.0,27.89,South,185,0.0,0.0,39,0.00,CLR,,0.00,WeatherDisplay:10.37,2013-02-02 03:55:00,
2013-02-01 23:00:00,7.7,-12.2,27.89,South,185,0.0,0.0,39,0.00,CLR,,0.00,WeatherDisplay:10.37,2013-02-02 04:00:00,
2013-02-01 23:05:00,7.7,-12.2,27.89,South,185,0.0,0.0,39,0.00,CLR,,0.00,WeatherDisplay:10.37,2013-02-02 04:05:00,
2013-02-01 23:10:00,7.5,-12.3,27.89,South,185,0.0,0.0,39,0.00,CLR,,0.00,WeatherDisplay:10.37,2013-02-02 04:10:00,
2013-02-01 23:15:00,7.7,-12.2,27.89,South,185,0.0,0.0,39,0.00,CLR,,0.00,WeatherDisplay:10.37,2013-02-02 04:15:00,
2013-02-01 23:20:00,7.7,-12.2,27.89,South,185,0.0,0.0,39,0.00,CLR,,0.00,WeatherDisplay:10.37,2013-02-02 04:20:00,
2013-02-01 23:25:00,7.5,-12.3,27.89,South,185,0.0,0.0,39,0.00,CLR,,0.00,WeatherDisplay:10.37,2013-02-02 04:25:00,
2013-02-01 23:30:00,7.2,-12.6,27.89,South,185,0.0,0.0,39,0.00,CLR,,0.00,WeatherDisplay:10.37,2013-02-02 04:30:00,
2013-02-01 23:35:00,7.5,-12.3,27.89,South,185,0.0,0.0,39,0.00,CLR,,0.00,WeatherDisplay:10.37,2013-02-02 04:35:00,
2013-02-01 23:40:00,7.3,-12.5,27.89,South,185,0.0,0.0,39,0.00,CLR,,0.00,WeatherDisplay:10.37,2013-02-02 04:40:00,
2013-02-01 23:45:00,7.2,-12.6,27.89,South,185,0.0,0.0,39,0.00,CLR,,0.00,WeatherDisplay:10.37,2013-02-02 04:45:00,
2013-02-01 23:50:00,7.3,-12.5,27.89,South,185,0.0,0.0,39,0.00,CLR,,0.00,WeatherDisplay:10.37,2013-02-02 04:50:00,
2013-02-01 23:55:00,7.2,-12.6,27.89,South,185,0.0,0.0,39,0.00,CLR,,0.00,WeatherDisplay:10.37,2013-02-02 04:55:00,